Regional Weather Roundup
Issued by NWS New Orleans/Baton Rouge, LA

Home | Current Version | Previous Version | Graphics & Text | Print | Product List | Glossary On
Versions: 1 2 3 4 5 6 7 8 9 10 11 12 13 14 15 16 17 18 19 20 21 22 23 24 25 26 27 28 29 30 31 32 33 34 35 36 37 38 39 40 41 42 43 44 45 46 47 48 49 50
987
ASUS44 KLIX 192301
RWRLIX
NEW ORLEANS REGIONAL WEATHER ROUNDUP
NATIONAL WEATHER SERVICE NEW ORLEANS LA
600 PM CDT SAT APR 19 2014

NOTE: "FAIR" INDICATES FEW OR NO CLOUDS BELOW 12,000 FEET WITH NO
      SIGNIFICANT WEATHER AND/OR OBSTRUCTIONS TO VISIBILITY.
      SKY/WX - SKY CONDITION AND SIGNIFICANT WEATHER.
      TMP - AIR TEMPERATURE.     DP    - DEWPOINT TEMPERATURE.
      RH  - RELATIVE HUMIDITY.   PRES  - PRESSURE.
      HI  - HEAT INDEX.          WCI   - WIND CHILL INDEX.

*  THESE STATIONS ARE NOT NWS OR FAA STATIONS AND ARE NOT UNDER
   NWS QUALITY CONTROL.

LAZ038-040-048-061>063-065>067-069-200000-
SOUTHEAST LOUISIANA

CITY           SKY/WX    TMP DP  RH WIND       PRES   REMARKS
N.O. AUDUBON     N/A     78  55  44 MISG        N/A
N.O. INTL ARPT MOSUNNY   77  53  43 NW5       30.08S
N.O. LAKEFRONT SUNNY     73  60  63 W9        30.08S
N.O. DOWNTOWN*   N/A     79  48  34 N7        30.08F
SLIDELL        SUNNY     79  50  36 N8        30.06S
BATON ROUGE    SUNNY     80  52  37 VRB6      30.09R
BOOTHVILLE     SUNNY     74  53  48 NW12      30.09R
BELLE CHASSE   MOSUNNY   78  49  35 NW6       30.07S
BOGALUSA*        N/A     79  49  34 N10       30.08F
GALLIANO*      NOT AVBL
NEW ROADS*     NOT AVBL
GONZALES*        N/A     78  52  40 NW6       30.08S
HAMMOND*       NOT AVBL
HOUMA*         SUNNY     79  48  34 N6        30.09R
PORT FOURCHON* CLEAR     72  57  60 SW7       30.12R

$$

MSZ070-080>082-200000-
SOUTHERN MISSISSIPPI

CITY           SKY/WX    TMP DP  RH WIND       PRES   REMARKS
MCCOMB         SUNNY     78  49  35 N9        30.09S
GULFPORT       SUNNY     81  50  33 N12       30.04S
BILOXI         MOSUNNY   77  52  41 N9G22     30.05R
PASCAGOULA     MOSUNNY   78  50  37 N9        30.04R

$$

COASTAL OBSERVATIONS
LAKE AND NEARSHORE STATIONS

STATION/POSITION TIME  TEMP    WIND        PRES    WAVE
                       AIR SEA DIR/SP/G            HT/PER
                 (UTC) (F)     (DEG/KT/KT) (MB)    (FT/S)
PASCAGOULA       2200   78     340/  7/ 13 1016.5
WAVELAND YACHT   2200   76 69  360/ 10/ 14 1017.0
GRAND ISLE       2200   73 67  320/  9/ 10 1019.5
SOUTHWEST PASS   2200   70 59  260/ 10/ 11 1019.4
NEW CANAL        2200   75 67  260/  5/  6 1019.0
SHELL BEACH      2200   72 66  300/  7/  8 1018.2

OFFSHORE STATIONS

STATION/POSITION TIME  TEMP    WIND        PRES    WAVE
                       AIR SEA DIR/SP/G            HT/PER
                 (UTC) (F)     (DEG/KT/KT) (MB)    (FT/S)
64 S DAUPHIN ISL 2250   68 71  290/ 14/ 16 1018.0

$$




USA.gov is the U.S. government's official web portal to all federal, state and local government web resources and services.